Hourly Weather Alibag

Today, 9 March, Tuesday

Time Temperature Precipitation Wind Pressure Humidity
00:00 +25°C° 0 mm 2 mps 758 mmHg 77%
01:00 +25°C° 0 mm 3 mps 758 mmHg 77%
02:00 +25°C° 0 mm 3 mps 757 mmHg 77%
03:00 +24°C° 0 mm 3 mps 758 mmHg 77%
04:00 +24°C° 0 mm 3 mps 758 mmHg 76%
05:00 +24°C° 0 mm 3 mps 758 mmHg 75%
06:00 +25°C° 0 mm 3 mps 758 mmHg 68%
07:00 +27°C° 0 mm 3 mps 759 mmHg 60%
08:00 +28°C° 0 mm 4 mps 760 mmHg 52%
09:00 +31°C° 0 mm 3 mps 760 mmHg 41%
10:00 +36°C° 0 mm 3 mps 760 mmHg 30%
11:00 +39°C° 0 mm 3 mps 760 mmHg 19%
12:00 +40°C° 0 mm 4 mps 759 mmHg 20%
13:00 +40°C° 0 mm 5 mps 758 mmHg 21%
14:00 +40°C° 0 mm 6 mps 757 mmHg 21%
15:00 +39°C° 0 mm 6 mps 757 mmHg 24%
16:00 +38°C° 0 mm 6 mps 757 mmHg 27%
17:00 +36°C° 0 mm 6 mps 757 mmHg 29%
18:00 +34°C° 0 mm 5 mps 757 mmHg 38%
19:00 +30°C° 0 mm 4 mps 758 mmHg 46%
20:00 +28°C° 0 mm 3 mps 758 mmHg 55%
21:00 +28°C° 0 mm 3 mps 759 mmHg 54%
22:00 +27°C° 0 mm 3 mps 759 mmHg 53%
23:00 +27°C° 0 mm 3 mps 759 mmHg 51%

Tomorrow, 10 March, Wednesday

Time Temperature Precipitation Wind Pressure Humidity
00:00 +27°C° 0 mm 3 mps 758 mmHg 54%
01:00 +27°C° 0 mm 4 mps 758 mmHg 57%
02:00 +26°C° 0 mm 5 mps 758 mmHg 60%
03:00 +26°C° 0 mm 4 mps 758 mmHg 59%
04:00 +25°C° 0 mm 4 mps 758 mmHg 58%
05:00 +25°C° 0 mm 3 mps 758 mmHg 58%
06:00 +26°C° 0 mm 3 mps 759 mmHg 50%
07:00 +28°C° 0 mm 3 mps 759 mmHg 42%
08:00 +29°C° 0 mm 2 mps 760 mmHg 34%
09:00 +33°C° 0 mm 3 mps 760 mmHg 29%
10:00 +35°C° 0 mm 3 mps 760 mmHg 25%
11:00 +38°C° 0 mm 4 mps 760 mmHg 20%
12:00 +38°C° 0 mm 4 mps 759 mmHg 22%
13:00 +39°C° 0 mm 5 mps 758 mmHg 25%
14:00 +39°C° 0 mm 5 mps 757 mmHg 27%
15:00 +36°C° 0 mm 5 mps 757 mmHg 32%
16:00 +35°C° 0 mm 6 mps 756 mmHg 38%
17:00 +34°C° 0 mm 6 mps 756 mmHg 43%
18:00 +32°C° 0 mm 5 mps 756 mmHg 52%
19:00 +29°C° 0 mm 4 mps 757 mmHg 60%
20:00 +26°C° 0 mm 3 mps 757 mmHg 69%
21:00 +26°C° 0 mm 2 mps 758 mmHg 68%
22:00 +26°C° 0 mm 2 mps 758 mmHg 67%
23:00 +26°C° 0 mm 2 mps 758 mmHg 65%

Day after tomorrow, 11 March, Thursday

Time Temperature Precipitation Wind Pressure Humidity
00:00 +26°C° 0 mm 2 mps 758 mmHg 66%
01:00 +25°C° 0 mm 3 mps 758 mmHg 67%
02:00 +25°C° 0 mm 3 mps 757 mmHg 68%
03:00 +25°C° 0 mm 3 mps 757 mmHg 68%
04:00 +25°C° 0 mm 4 mps 757 mmHg 67%
05:00 +23°C° 0 mm 4 mps 757 mmHg 67%
06:00 +26°C° 0 mm 4 mps 758 mmHg 60%
07:00 +27°C° 0 mm 3 mps 759 mmHg 53%
08:00 +28°C° 0 mm 3 mps 759 mmHg 46%
09:00 +31°C° 0 mm 3 mps 759 mmHg 39%
10:00 +34°C° 0 mm 3 mps 759 mmHg 32%
11:00 +37°C° 0 mm 4 mps 759 mmHg 26%
12:00 +37°C° 0 mm 4 mps 758 mmHg 28%
13:00 +37°C° 0 mm 5 mps 758 mmHg 30%
14:00 +38°C° 0 mm 6 mps 757 mmHg 32%
15:00 +36°C° 0 mm 6 mps 757 mmHg 37%
16:00 +34°C° 0 mm 6 mps 756 mmHg 42%
17:00 +33°C° 0 mm 6 mps 756 mmHg 48%
18:00 +30°C° 0 mm 5 mps 757 mmHg 56%
19:00 +28°C° 0 mm 4 mps 757 mmHg 64%
20:00 +26°C° 0 mm 3 mps 758 mmHg 72%
21:00 +26°C° 0 mm 3 mps 758 mmHg 71%
22:00 +26°C° 0 mm 3 mps 758 mmHg 70%
23:00 +26°C° 0 mm 3 mps 759 mmHg 69%

12 March, Friday

Time Temperature Precipitation Wind Pressure Humidity
00:00 +25°C° 0 mm 3 mps 758 mmHg 70%
01:00 +25°C° 0 mm 2 mps 758 mmHg 70%
02:00 +25°C° 0 mm 2 mps 758 mmHg 70%
03:00 +24°C° 0 mm 2 mps 758 mmHg 69%
04:00 +24°C° 0 mm 3 mps 758 mmHg 68%
05:00 +24°C° 0 mm 3 mps 758 mmHg 67%
06:00 +25°C° 0 mm 3 mps 759 mmHg 61%
07:00 +27°C° 0 mm 3 mps 760 mmHg 54%
08:00 +28°C° 0 mm 3 mps 760 mmHg 48%
09:00 +31°C° 0 mm 3 mps 760 mmHg 39%
10:00 +34°C° 0 mm 4 mps 760 mmHg 31%
11:00 +37°C° 0 mm 4 mps 760 mmHg 23%
12:00 +37°C° 0 mm 4 mps 759 mmHg 25%
13:00 +37°C° 0 mm 5 mps 758 mmHg 26%
14:00 +39°C° 0 mm 5 mps 757 mmHg 28%
15:00 +36°C° 0 mm 6 mps 757 mmHg 36%
16:00 +34°C° 0 mm 6 mps 757 mmHg 43%
17:00 +33°C° 0 mm 7 mps 757 mmHg 50%
18:00 +30°C° 0 mm 6 mps 757 mmHg 54%
19:00 +28°C° 0 mm 4 mps 758 mmHg 58%
20:00 +27°C° 0 mm 3 mps 758 mmHg 62%
21:00 +27°C° 0 mm 3 mps 758 mmHg 61%
22:00 +26°C° 0 mm 3 mps 758 mmHg 59%
23:00 +26°C° 0 mm 2 mps 758 mmHg 57%

13 March, Saturday

Time Temperature Precipitation Wind Pressure Humidity
00:00 +26°C° 0 mm 3 mps 758 mmHg 57%
01:00 +26°C° 0 mm 4 mps 758 mmHg 57%
02:00 +26°C° 0 mm 5 mps 758 mmHg 57%
03:00 +25°C° 0 mm 5 mps 758 mmHg 55%
04:00 +25°C° 0 mm 4 mps 758 mmHg 53%
05:00 +25°C° 0 mm 4 mps 758 mmHg 52%
06:00 +26°C° 0 mm 4 mps 759 mmHg 45%
07:00 +28°C° 0 mm 3 mps 760 mmHg 39%
08:00 +29°C° 0 mm 3 mps 760 mmHg 33%
09:00 +34°C° 0 mm 4 mps 760 mmHg 27%
10:00 +37°C° 0 mm 4 mps 760 mmHg 22%
11:00 +42°C° 0 mm 5 mps 760 mmHg 16%
12:00 +42°C° 0 mm 5 mps 759 mmHg 17%
13:00 +42°C° 0 mm 6 mps 758 mmHg 19%
14:00 +42°C° 0 mm 6 mps 757 mmHg 20%
15:00 +40°C° 0 mm 6 mps 757 mmHg 25%
16:00 +37°C° 0 mm 5 mps 756 mmHg 29%
17:00 +36°C° 0 mm 5 mps 756 mmHg 33%
18:00 +33°C° 0 mm 4 mps 757 mmHg 40%
19:00 +30°C° 0 mm 3 mps 757 mmHg 47%
20:00 +28°C° 0 mm 2 mps 757 mmHg 54%
21:00 +28°C° 0 mm 2 mps 758 mmHg 53%
22:00 +28°C° 0 mm 3 mps 758 mmHg 52%
23:00 +28°C° 0 mm 3 mps 758 mmHg 51%

14 March, Sunday

Time Temperature Precipitation Wind Pressure Humidity
00:00 +27°C° 0 mm 3 mps 758 mmHg 48%
01:00 +27°C° 0 mm 3 mps 757 mmHg 46%
02:00 +27°C° 0 mm 3 mps 757 mmHg 44%
03:00 +26°C° 0 mm 3 mps 757 mmHg 44%
04:00 +26°C° 0 mm 3 mps 757 mmHg 44%
05:00 +26°C° 0 mm 3 mps 757 mmHg 45%
06:00 +27°C° 0 mm 3 mps 758 mmHg 40%
07:00 +29°C° 0 mm 2 mps 758 mmHg 35%
08:00 +30°C° 0 mm 2 mps 759 mmHg 30%
09:00 +32°C° 0 mm 2 mps 759 mmHg 27%
10:00 +36°C° 0 mm 3 mps 759 mmHg 24%
11:00 +38°C° 0 mm 3 mps 759 mmHg 22%
12:00 +38°C° 0 mm 3 mps 758 mmHg 26%
13:00 +37°C° 0 mm 4 mps 757 mmHg 29%
14:00 +37°C° 0 mm 4 mps 756 mmHg 33%
15:00 +36°C° 0 mm 4 mps 756 mmHg 34%
16:00 +35°C° 0 mm 3 mps 756 mmHg 35%
17:00 +35°C° 0 mm 3 mps 755 mmHg 36%
18:00 +33°C° 0 mm 3 mps 756 mmHg 42%
19:00 +30°C° 0 mm 2 mps 756 mmHg 49%
20:00 +28°C° 0 mm 2 mps 757 mmHg 55%
21:00 +27°C° 0 mm 2 mps 757 mmHg 56%
22:00 +27°C° 0 mm 3 mps 757 mmHg 56%
23:00 +27°C° 0 mm 4 mps 757 mmHg 57%
Show more